sat.trackr.live / text

‹ back to catalog

2025-313AC

NORAD 67274 · 2025-313AC

PAYLOAD ACTIVE UNKNOWN

§ Identity

Operator
Country
TBD
Launch date
2025-12-28
Launch site
VOSTO
Launch vehicle
Mass (kg)
RCS (m²)

External: N2YO · Heavens-Above · Gunter

§ Orbital elements

Epoch: 2026-05-25T03:50:07.494144Z

Period
94.60 min
Inclination
97.3937°
Eccentricity
0.0016346
Mean motion
15.22186841 rev/d
Perigee alt
488.0 km
Apogee alt
510.5 km
Semi-major
6,877.4 km
B*
2.8236e-4
RAAN
220.1058°
Arg perigee
86.9669°
Mean anomaly
273.3438°
Rev number
2,244

§ Raw data

2025-313AC1 67274U 25313AC  26145.15980896  .00006436  00000+0  28236-3 0  99962 67274  97.3937 220.1058 0016346  86.9669 273.3438 15.22186841 22448

JSON: /api/v1/satellites/67274 · /tle

For live sub-satellite position, see the globe view (requires WebGL).

§ Visibility from observer

Set your observer location to see the next 7 days of passes ≥ 10°. The values pass through the URL so the page stays shareable.

No JS? Fill the form by hand. The geolocation button needs JavaScript.